Погода в Сан-Висенти

Бразилия     23°57′02″S   46°23′52″W
темп.,
°C
ветер,
м/с
пор.,
м/с
влажн.,
%
обл.,
%
осадки,
мм/ч
давл.,
гПа
погр.,
м
22 октября, пт
пт2200:00+17в239165 0.3 1016291
03:00+17ссв129131 0.5 1015166
06:00+16ссз11880 0.0 101574
09:00+21ююв21723 0.0 1016626
12:00+22ююв336712 0.0 1015883
15:00+21вюв227242 0.0 1013725
18:00+19в238521 0.0 1013265
21:00+18св239030 0.0 1015282
23 октября, сб
сб2300:00+17с22880 0.0 101493
03:00+17с11840 0.0 101261
06:00+17с11830 0.0 101377
09:00+22в23670 0.0 1014493
12:00+25вюв35602 0.0 1010829
15:00+24вюв32670 0.0 1007340
18:00+21всв128672 0.0 100772
21:00+22ссв127563 0.0 100632
24 октября, вс
вс2400:00+21зсз1168100 0.0 100623
03:00+20зюз61078100 0.0 1007282
06:00+20ссв2390100 0.6 100984
09:00+22ссз41375100 3.1 1008647
12:00+24ссз2669100 0.0 1010462
15:00+24зсз3768100 0.1 1010851
18:00+21ю4588100 0.2 1013214
21:00+20ю3596100 4.6 1016526
25 октября, пн
пн2500:00+19ююз2497100 3.1 1017257
03:00+19ююв4597100 10.9 1016413
06:00+18юв3394100 4.5 1019355
09:00+19юв1291100 5.1 1020315
12:00+19юв1287100 0.1 1019417
15:00+19юв2291100 0.4 1018352
18:00+19вюв2394100 0.7 1019293
21:00+19в2395100 1.1 1020259
26 октября, вт
вт2600:00+19вюв2297100 0.4 1019199
03:00+19вюв2297100 0.9 1018193
06:00+20вюв2398100 0.6 1019235
09:00+20всв129599 1.2 1020199
12:00+21юв1296100 1.3 1019169
15:00+22вюв229299 2.4 1018413
18:00+20в3499100 2.0 1018322
21:00+20в2399100 2.3 1019268